Tracking 19920 objects as of 15-Oct-2019
HD Live streaming from Space Station
objects crossing your sky now

IRIDIUM 33 DEB

Track IRIDIUM 33 DEB now!
10-day predictions


NORAD ID: 36011
Int'l Code: 1997-051US
Perigee: 768.2 km
Apogee: 799.6 km
Inclination: 86.3 °
Period: 100.4 minutes
Semi major axis: 7154 km
RCS: 0.0036 m2 (small)
Launch date: September 14, 1997
Source: United States (US)
Launch site: TYURATAM MISSILE AND SPACE COMPLEX (TTMTR)

Note: This is SATELLITE DEBRIS
aabbcc
Your satellite tracking list
Your tracking list is empty




NASA's NSSDC Master Catalog

Two Line Element Set (TLE):
1 36011U 97051US  19285.76185366  .00000271  00000-0  88752-4 0  9994
2 36011  86.3395 274.5426 0021930  40.3496  82.5929 14.34494053531043
Source of the keplerian elements: AFSPC